Location: Allonne
(49.4086°N, 2.1143°E)
Time: 17:59:44
(UTC+00:00)

Cosmos 2322 - Pass Details

Date: 03 February 2023
Orbit: 841 x 854 km, 71.0° (Epoch: 25 March)

Event Time Altitude Azimuth Distance (km) Brightness Sun altitude
Rises 18:53:08 0° 181° (S) 3,407 6.9 -20.1°
Reaches altitude 10° 18:55:43 10° 174° (S) 2,477 6.1 -20.5°
Enters shadow 19:00:20 38° 122° (ESE) 1,292 4.2 -21.3°
